Regional Weather Roundup
Issued by NWS

Home | Current Version | Previous Version | Graphics & Text | Print | Product List | Glossary On
Versions: 1 2 3 4 5 6 7 8 9 10 11 12 13 14 15 16 17 18 19 20 21 22 23 24 25 26 27 28 29 30 31 32 33 34 35 36 37 38 39 40 41 42 43 44 45 46 47 48 49 50
000
ASUS43 KLSX 300259
RWRMO

WEATHER SUMMARY FOR MISSOURI
NATIONAL WEATHER SERVICE SPRINGFIELD MO
1000 PM CDT MON MAY 29 2017

NOTE: "FAIR" INDICATES FEW OR NO CLOUDS BELOW 12,000 FEET WITH NO
       SIGNIFICANT WEATHER AND/OR OBSTRUCTIONS TO VISIBILITY.
       CURRENT SKY AND/OR WEATHER CONDITIONS ARE NOT AVAILABLE FOR
       CHILLICOTHE AND FARMINGTON.

MOZ001>031-035>038-043-044-053-054-300400-
...NORTHERN AND WESTERN MISSOURI...

CITY           SKY/WX    TMP DP  RH WIND       PRES   REMARKS
KANSAS CTY INT CLEAR     66  47  50 N8        30.01R
KANSAS C DTWN  CLEAR     71  50  47 N3        29.99R
LEE`S SUMMIT   CLEAR     69  51  52 W5        30.00R
ST JOSEPH      CLEAR     63  46  54 NW6       30.02R
CHILLICOTHE      N/A     61  51  70 CALM      30.00R
KIRKSVILLE     CLEAR     56  32  40 W3        29.99R

$$
MOZ066>068-077>081-088>096-101>105-300400-
...SOUTHWEST MISSOURI...

CITY           SKY/WX    TMP DP  RH WIND       PRES   REMARKS
SPRINGFIELD    CLEAR     66  60  81 CALM      30.01R
JOPLIN         CLEAR     67  59  75 SE3       30.01R

$$
MOZ032>034-039>042-045>050-055>058-069>072-300400-
...CENTRAL MISSOURI...

CITY           SKY/WX    TMP DP  RH WIND       PRES   REMARKS
COLUMBIA       CLEAR     70  52  52 CALM      29.99R
JEFFERSON CITY PTCLDY    70  56  61 SE3       29.98R
ROLLA          CLEAR     63  53  70 W3        30.00R
SEDALIA        CLEAR     71  51  49 W3        30.00R
WARRENSBURG    CLEAR     68  48  49 W3        29.99R
OSAGE BEACH    CLEAR     63  58  83 CALM      30.01R

$$
MOZ051-052-059>065-300400-
...EAST CENTRAL MISSOURI...

CITY           SKY/WX    TMP DP  RH WIND       PRES   REMARKS
ST LOUIS INTL  PTCLDY    70  57  63 CALM      29.98R
SPIRIT OF STL  PTCLDY    62  61  96 CALM      29.97R
ST CHARLES     CLEAR     68  56  65 CALM      29.96R

$$
MOZ072>076-082>087-097>100-106>115-300400-
...SOUTH CENTRAL AND SOUTHEAST MISSOURI...

CITY           SKY/WX    TMP DP  RH WIND       PRES   REMARKS
CAPE GIRARDEAU CLOUDY    70  60  70 W8        29.96R
FARMINGTON     CLEAR     65  57  75 CALM      30.01R
POPLAR BLUFF   CLEAR     73  63  70 SW3       29.98R
WEST PLAINS    CLEAR     64  60  87 CALM      30.03R

$$




USA.gov is the U.S. government's official web portal to all federal, state and local government web resources and services.